• Join FlightAware (Why Join?)
  • Login
  • US Flag 
11:30PM EDT


 

Airport Tracker/Info


-or-


 

Live Flight TrackerFlight Track Log ✈ EJA695 ✈ 20-Jul-2013 ✈ KHTO - KHPN

Flight Track Log - Related Links

Times and Time Zones

All times are in EDT time to prevent confusion due to time zone crossing. See the EJA695 flight status page for this flight to view local times or setup timezone preferences in your user account.

Time Position Orientation Groundspeed Altitude Reporting Facility
EDT Latitude Longitude Course Direction KTS MPH feet Rate Location/Type
10:10AM 40.9667 -72.5000 287° West 221 254 6,000  Level New York TRACON
10:11AM 41.0000 -72.5833 298° West 245 282 6,000  Level New York TRACON
10:12AM 41.0167 -72.6667 285° West 240 276 6,000  Level New York TRACON
10:13AM 41.0500 -72.7500 298° West 236 272 6,000  Level New York TRACON
10:14AM 41.0667 -72.8167 288° West 236 272 6,000 -720 Level New York TRACON
10:15AM 41.0707 -72.7706 287° West  Level FlightAware Approximate
10:15AM 41.0833 -72.9000 285° West 233 268 4,700  Level New York TRACON
10:16AM 41.1167 -72.9667 304° West 221 254 4,000 -360 Descending New York TRACON
10:17AM 41.1333 -73.0500 285° West 212 244 4,000  Level New York TRACON
10:18AM 41.1500 -73.1167 288° West 222 255 4,000  Level New York TRACON
10:19AM 41.1667 -73.2000 285° West 224 258 4,000  Level New York TRACON
10:20AM 41.1667 -73.2833 270° West 229 264 4,000  Level New York TRACON
10:21AM 41.1833 -73.3667 285° West 228 262 4,000 -480 Level New York TRACON
10:22AM 41.1833 -73.4500 270° West 234 269 3,100 -480 Descending New York TRACON
10:23AM 41.1833 -73.5333 270° West 242 278 3,000 -60 Descending New York TRACON
10:24AM 41.1000 -73.5500 189° South 260 299 3,000  Level New York TRACON
10:25AM 41.0333 -73.5500 180° South 247 284 3,000  Level New York TRACON
10:26AM 40.9833 -73.5833 207° Southwest 242 278 3,000 -60 Level New York TRACON
10:27AM 41.0000 -73.6667 285° West 188 216 2,900 -1,020 Descending New York TRACON
10:28AM 41.0333 -73.6833 339° North 148 170 1,000 -2,160 Descending New York TRACON
10:30AM 41.0667 -73.7000 236° Southwest  Level FlightAware Approximate
10:37AM 41.0669 -73.7076 236° Southwest  Level Estimated